Location: Palomar East Mobile Home Park
(33.1350°N, 117.2098°W)
Time: 06:54:38
(UTC+00:00)

Daily predictions for brighter satellites

Satellite Brightness Start Highest point End
(mag) Time Altitude Azimuth Time Altitude Azimuth Time Altitude Azimuth
SWIFT 4.4 12:04:23 10° SSW 12:05:30 11° S 12:06:37 10° S
Meteor 1-18 Rocket 4.4 12:00:01 10° N 12:05:52 88° E 12:11:46 10° S
OE (NEXTSAT) 4.2 12:02:55 11° WSW 12:06:03 77° NW 12:09:20 10° NE
Cosmos 1513 Rocket 4.5 12:02:58 10° NNW 12:08:57 65° W 12:14:58 10° S
Envisat 3.4 12:06:06 10° NNE 12:11:10 66° ESE 12:16:11 10° S
ALOS 3.6 12:08:44 10° NNW 12:12:21 23° WNW 12:15:58 10° WSW
Cosmos 1633 Rocket 3.6 12:08:54 10° S 12:13:10 60° E 12:17:27 10° NNE
H-2A R/B 3.9 12:10:14 10° NNE 12:13:46 44° E 12:17:21 10° S
